Location: Godzisko
(49.9648°N, 19.4576°E)
Time: 01:42:01
(UTC+00:00)

FALCON 9 DEB - Pass Details

Date: 20 April 2021
Orbit: 369 x 385 km, 53.0° (Epoch: 08 May)

Event Time Altitude Azimuth Distance (km) Brightness Sun altitude
Exits shadow 02:00:56 30° 197° (SSW) 708 3.7 -14.6°
Drops below altitude 10° 02:03:18 10° 150° (SSE) 1,382 5.6 -14.3°
Sets 02:05:27 0° 140° (SE) 2,233 6.8 -14.0°
